• In Hungary
  • List of Countries
  • For 7 days
  • Water Temperature
  • Satellite Maps
  • Weather Map
  • News
  • Weather Widgets
  • user-avatar
    Login

    Hourly Weather Sada

    Today, 26 May, Saturday

    Time Temperature Precipitation Wind Pressure Humidity
    00:00 +21°C° 0 mm 2 mps 571 mmHg 30%
    01:00 +20°C° 0 mm 2 mps 570 mmHg 29%
    02:00 +21°C° 0 mm 1 mps 570 mmHg 29%
    03:00 +20°C° 0 mm 1 mps 569 mmHg 31%
    04:00 +20°C° 0 mm 1 mps 569 mmHg 30%
    05:00 +20°C° 0 mm 1 mps 569 mmHg 30%
    06:00 +19°C° 0 mm 1 mps 570 mmHg 30%
    07:00 +20°C° 0 mm 2 mps 570 mmHg 27%
    08:00 +21°C° 0 mm 2 mps 571 mmHg 24%
    09:00 +24°C° 0 mm 2 mps 572 mmHg 22%
    10:00 +25°C° 0 mm 3 mps 573 mmHg 20%
    11:00 +26°C° 0 mm 4 mps 573 mmHg 19%
    12:00 +27°C° 0 mm 4 mps 574 mmHg 17%
    13:00 +27°C° 0 mm 5 mps 573 mmHg 18%
    14:00 +28°C° 0 mm 5 mps 573 mmHg 19%
    15:00 +28°C° 0 mm 5 mps 573 mmHg 18%
    16:00 +27°C° 0 mm 5 mps 572 mmHg 20%
    17:00 +26°C° 0 mm 5 mps 572 mmHg 22%
    18:00 +25°C° 0 mm 4 mps 572 mmHg 24%
    19:00 +25°C° 0 mm 4 mps 572 mmHg 25%
    20:00 +24°C° 0 mm 3 mps 572 mmHg 26%
    21:00 +22°C° 0 mm 3 mps 572 mmHg 27%
    22:00 +22°C° 0 mm 3 mps 572 mmHg 28%
    23:00 +21°C° 0 mm 3 mps 571 mmHg 29%

    Tomorrow, 27 May, Sunday

    Time Temperature Precipitation Wind Pressure Humidity
    00:00 +21°C° 0 mm 2 mps 571 mmHg 30%
    01:00 +20°C° 0 mm 2 mps 571 mmHg 30%
    02:00 +20°C° 0 mm 3 mps 571 mmHg 30%
    03:00 +19°C° 0 mm 3 mps 570 mmHg 30%
    04:00 +19°C° 0 mm 2 mps 570 mmHg 32%
    05:00 +19°C° 0 mm 2 mps 570 mmHg 33%
    06:00 +18°C° 0 mm 2 mps 570 mmHg 35%
    07:00 +20°C° 0 mm 2 mps 571 mmHg 32%
    08:00 +21°C° 0 mm 3 mps 572 mmHg 29%
    09:00 +23°C° 0 mm 4 mps 573 mmHg 26%
    10:00 +25°C° 0 mm 4 mps 573 mmHg 23%
    11:00 +26°C° 0 mm 5 mps 574 mmHg 21%
    12:00 +27°C° 0 mm 6 mps 574 mmHg 18%
    13:00 +28°C° 0 mm 6 mps 574 mmHg 18%
    14:00 +28°C° 0 mm 5 mps 574 mmHg 19%
    15:00 +28°C° 0 mm 5 mps 573 mmHg 19%
    16:00 +27°C° 0 mm 5 mps 573 mmHg 22%
    17:00 +26°C° 0 mm 4 mps 572 mmHg 24%
    18:00 +25°C° 0 mm 4 mps 572 mmHg 26%
    19:00 +25°C° 0 mm 3 mps 572 mmHg 27%
    20:00 +24°C° 0 mm 3 mps 572 mmHg 28%
    21:00 +22°C° 0 mm 3 mps 572 mmHg 30%
    22:00 +23°C° 0 mm 2 mps 572 mmHg 30%
    23:00 +21°C° 0 mm 2 mps 572 mmHg 31%

    Day after tomorrow, 28 May, Monday

    Time Temperature Precipitation Wind Pressure Humidity
    00:00 +22°C° 0 mm 1 mps 572 mmHg 31%
    01:00 +21°C° 0 mm 1 mps 571 mmHg 31%
    02:00 +21°C° 0 mm 1 mps 571 mmHg 31%
    03:00 +20°C° 0 mm 1 mps 570 mmHg 31%
    04:00 +20°C° 0 mm 1 mps 570 mmHg 32%
    05:00 +20°C° 0 mm 1 mps 570 mmHg 32%
    06:00 +19°C° 0 mm 1 mps 570 mmHg 32%
    07:00 +21°C° 0 mm 1 mps 571 mmHg 29%
    08:00 +23°C° 0 mm 2 mps 572 mmHg 25%
    09:00 +24°C° 0 mm 2 mps 573 mmHg 21%
    10:00 +25°C° 0 mm 3 mps 574 mmHg 19%
    11:00 +26°C° 0 mm 4 mps 574 mmHg 17%
    12:00 +28°C° 0 mm 4 mps 575 mmHg 15%
    13:00 +28°C° 0 mm 4 mps 574 mmHg 17%
    14:00 +27°C° 0 mm 5 mps 573 mmHg 19%
    15:00 +27°C° 0 mm 5 mps 573 mmHg 21%
    16:00 +27°C° 0 mm 4 mps 572 mmHg 23%
    17:00 +26°C° 0 mm 4 mps 572 mmHg 26%
    18:00 +25°C° 0 mm 4 mps 571 mmHg 29%
    19:00 +24°C° 0 mm 3 mps 572 mmHg 30%
    20:00 +23°C° 0 mm 2 mps 572 mmHg 32%
    21:00 +23°C° 0 mm 1 mps 572 mmHg 34%
    22:00 +22°C° 0 mm 1 mps 572 mmHg 34%
    23:00 +22°C° 0 mm 1 mps 571 mmHg 34%

    29 May, Tuesday

    Time Temperature Precipitation Wind Pressure Humidity
    00:00 +19°C° 0 mm 0 mps 571 mmHg 35%
    01:00 +19°C° 0 mm 0 mps 570 mmHg 35%
    02:00 +18°C° 0 mm 0 mps 570 mmHg 36%
    03:00 +18°C° 0 mm 0 mps 569 mmHg 37%
    04:00 +18°C° 0 mm 0 mps 569 mmHg 36%
    05:00 +18°C° 0 mm 0 mps 569 mmHg 35%
    06:00 +17°C° 0 mm 0 mps 569 mmHg 35%
    07:00 +21°C° 0 mm 1 mps 571 mmHg 30%
    08:00 +23°C° 0 mm 2 mps 572 mmHg 25%
    09:00 +24°C° 0 mm 2 mps 573 mmHg 20%
    10:00 +26°C° 0 mm 3 mps 573 mmHg 18%
    11:00 +27°C° 0 mm 4 mps 573 mmHg 16%
    12:00 +28°C° 0 mm 5 mps 574 mmHg 15%
    13:00 +28°C° 0 mm 5 mps 573 mmHg 16%
    14:00 +28°C° 0 mm 5 mps 573 mmHg 17%
    15:00 +28°C° 0 mm 5 mps 572 mmHg 18%
    16:00 +27°C° 0 mm 5 mps 572 mmHg 21%
    17:00 +26°C° 0 mm 4 mps 572 mmHg 23%
    18:00 +25°C° 0 mm 4 mps 571 mmHg 26%
    19:00 +25°C° 0 mm 3 mps 571 mmHg 28%
    20:00 +24°C° 0 mm 2 mps 571 mmHg 30%
    21:00 +23°C° 0 mm 1 mps 571 mmHg 32%
    22:00 +23°C° 0 mm 1 mps 571 mmHg 33%
    23:00 +22°C° 0 mm 1 mps 570 mmHg 34%

    30 May, Wednesday

    Time Temperature Precipitation Wind Pressure Humidity
    00:00 +22°C° 0 mm 1 mps 570 mmHg 34%
    01:00 +22°C° 0 mm 1 mps 570 mmHg 34%
    02:00 +21°C° 0 mm 1 mps 569 mmHg 33%
    03:00 +21°C° 0 mm 1 mps 569 mmHg 33%
    04:00 +20°C° 0 mm 1 mps 569 mmHg 33%
    05:00 +20°C° 0 mm 1 mps 569 mmHg 33%
    06:00 +20°C° 0 mm 1 mps 570 mmHg 33%
    07:00 +21°C° 0 mm 1 mps 571 mmHg 31%
    08:00 +23°C° 0 mm 1 mps 572 mmHg 30%
    09:00 +24°C° 0 mm 1 mps 573 mmHg 28%
    10:00 +25°C° 0 mm 2 mps 573 mmHg 25%
    11:00 +26°C° 0 mm 3 mps 573 mmHg 23%
    12:00 +27°C° 0 mm 4 mps 573 mmHg 21%
    13:00 +27°C° 0 mm 4 mps 573 mmHg 22%
    14:00 +27°C° 0 mm 5 mps 572 mmHg 23%
    15:00 +27°C° 0 mm 5 mps 572 mmHg 24%
    16:00 +27°C° 0.1 mm 5 mps 572 mmHg 27%
    17:00 +26°C° 0.1 mm 4 mps 572 mmHg 30%
    18:00 +25°C° 0.1 mm 4 mps 572 mmHg 33%
    19:00 +25°C° 0 mm 3 mps 572 mmHg 35%
    20:00 +24°C° 0 mm 3 mps 572 mmHg 38%
    21:00 +23°C° 0 mm 2 mps 572 mmHg 41%
    22:00 +23°C° 0 mm 2 mps 572 mmHg 41%
    23:00 +23°C° 0 mm 2 mps 572 mmHg 41%

    31 May, Thursday

    Time Temperature Precipitation Wind Pressure Humidity
    00:00 +23°C° 0 mm 2 mps 571 mmHg 41%
    01:00 +21°C° 0 mm 2 mps 571 mmHg 43%
    02:00 +21°C° 0 mm 2 mps 571 mmHg 44%
    03:00 +21°C° 0 mm 1 mps 570 mmHg 46%
    04:00 +21°C° 0 mm 1 mps 570 mmHg 47%
    05:00 +21°C° 0 mm 1 mps 571 mmHg 48%
    06:00 +20°C° 0 mm 1 mps 571 mmHg 49%
    07:00 +21°C° 0 mm 2 mps 572 mmHg 44%
    08:00 +23°C° 0 mm 2 mps 572 mmHg 39%
    09:00 +24°C° 0 mm 3 mps 573 mmHg 35%
    10:00 +25°C° 0 mm 4 mps 573 mmHg 32%
    11:00 +27°C° 0 mm 5 mps 574 mmHg 29%
    12:00 +28°C° 0 mm 5 mps 574 mmHg 26%
    13:00 +27°C° 0 mm 5 mps 573 mmHg 28%
    14:00 +27°C° 0 mm 5 mps 572 mmHg 30%
    15:00 +27°C° 0 mm 4 mps 572 mmHg 32%
    16:00 +26°C° 0 mm 4 mps 572 mmHg 35%
    17:00 +25°C° 0 mm 4 mps 572 mmHg 38%
    18:00 +25°C° 0 mm 3 mps 571 mmHg 41%
    19:00 +24°C° 0 mm 3 mps 572 mmHg 42%
    20:00 +24°C° 0 mm 3 mps 572 mmHg 43%
    21:00 +22°C° 0 mm 3 mps 572 mmHg 44%
    22:00 +23°C° 0.3 mm 2 mps 572 mmHg 45%
    23:00 +21°C° 0.3 mm 2 mps 571 mmHg 45%
    Show more